Temp
27 26 25 25 24 21 24 25 26 26 26 28 28 28 26 25 25 23 20 21 21 20 20 20 20 20 21 21 21 21 21 21 21 21 21 20 20 20 20 20 19 19 19 19 19 18 19 19 18
27 26 25 21 22 22 23 24 25 27 27 28 28 27 26 24 23 20 20 20 21 20 20 20 20 20 21 22 22 21 21 21 20 20 20 20 20 20 20 20 19 19 18 18 18 18 18 19 19
26 25 23 21 19 22 24 25 27 28 28 29 28 28 26 22 22 21 20 20 20 20 20 20 20 21 21 21 21 21 21 20 20 20 20 20 20 20 20 20 20 20 20 20 20 19 19 19 19
25 23 21 23 24 24 26 27 26 28 29 29 27 25 25 24 22 22 20 21 20 20 20 20 20 21 21 21 21 20 20 20 19 20 20 20 20 21 21 21 21 20 20 19 19 18 18 19 19
25 20 22 23 24 25 26 28 27 29 28 28 28 25 24 24 23 22 21 21 20 20 20 20 21 21 21 20 19 19 20 20 20 20 20 20 20 20 20 20 19 19 19 19 18 18 18 19 19
22 20 22 23 24 27 27 26 28 28 27 27 26 25 23 22 22 20 21 21 20 20 20 20 21 21 20 20 20 20 20 20 20 20 20 20 20 20 20 19 19 19 19 19 18 19 19 19 19
23 21 23 24 25 26 28 26 29 28 27 27 27 24 21 22 21 21 21 20 20 20 20 20 20 20 20 20 20 20 20 20 20 20 20 20 19 19 19 19 18 19 18 18 18 19 18 18 18
21 22 24 25 25 26 27 28 29 27 25 27 28 24 21 22 20 20 19 19 19 19 20 20 20 20 20 20 21 21 20 20 20 20 19 19 19 19 19 19 19 18 18 18 18 18 18 19 18
23 22 21 26 27 29 27 27 27 26 25 24 28 26 25 22 20 19 19 19 19 19 20 20 20 21 20 21 20 20 20 20 20 20 19 19 19 19 19 18 18 18 18 18 18 18 18 18 18
23 20 23 25 27 27 30 28 25 27 25 25 25 26 23 21 19 19 18 18 18 18 19 20 21 20 20 20 20 20 20 20 20 20 19 19 19 18 18 18 18 18 18 18 18 18 18 18 18
24 24 25 27 26 26 27 26 26 27 26 25 25 25 22 21 21 20 19 19 19 20 19 20 21 21 20 20 20 19 19 19 20 19 19 19 18 18 18 18 18 17 17 18 18 18 17 17 17
27 26 27 27 28 28 27 27 27 28 27 27 26 26 23 22 21 21 20 19 19 19 20 21 21 21 20 19 19 19 20 20 20 19 19 19 18 18 17 17 17 17 17 17 17 17 17 17 17
26 26 26 26 25 25 27 26 26 27 27 26 26 27 24 23 22 22 21 21 20 19 21 22 21 21 20 19 19 19 19 19 19 19 18 18 18 17 17 17 17 17 17 17 17 17 17 16 16
27 26 26 26 27 27 27 26 26 27 26 26 26 26 25 23 23 23 22 20 20 20 22 22 21 21 20 19 19 19 19 19 18 19 18 17 17 17 16 16 16 16 17 17 17 17 17 16 16
27 27 25 27 29 30 27 26 26 25 26 25 25 25 25 25 24 24 22 21 21 21 22 22 21 21 20 20 19 19 19 18 18 18 18 17 17 16 16 16 16 16 16 16 16 17 17 16 16
26 24 25 27 28 29 29 28 26 25 25 25 24 24 24 22 23 25 23 22 22 21 21 22 22 21 20 20 20 19 19 18 19 18 17 16 16 16 16 16 15 15 16 16 16 16 17 16 16
21 24 26 26 27 29 29 27 24 23 25 24 24 24 24 22 22 23 23 23 22 21 21 21 21 20 20 20 20 19 18 18 18 17 17 16 16 16 15 15 15 15 15 15 16 16 16 16 15
26 26 25 25 27 28 27 26 22 23 24 25 22 23 24 22 22 23 23 22 22 21 20 20 20 20 20 20 19 18 17 18 17 17 16 16 16 15 15 14 14 14 14 15 16 15 16 16 15
26 26 25 25 26 29 26 25 22 22 23 22 22 22 23 23 22 23 22 22 21 20 19 19 19 20 20 19 18 17 17 17 16 16 16 16 15 15 14 14 14 14 14 15 15 15 16 15 15
24 25 24 26 28 28 25 23 21 22 22 23 22 22 24 24 21 20 22 21 20 19 18 18 18 19 20 20 19 18 17 16 16 16 15 15 15 14 14 14 14 13 14 14 15 15 14 14 15
26 26 27 27 27 27 25 22 22 23 23 24 22 22 24 23 21 21 20 19 19 18 18 17 16 16 15 17 18 18 17 16 15 15 15 15 14 14 14 13 13 13 13 13 14 14 14 13 13
28 27 28 28 26 25 25 23 22 23 23 22 21 22 22 24 22 20 19 18 18 17 17 18 17 17 17 14 17 18 16 15 15 15 15 14 14 14 14 13 13 13 13 13 13 13 14 14 13
29 29 27 27 24 24 24 20 22 22 23 23 22 21 22 23 22 20 19 18 17 16 18 18 20 21 20 14 15 16 17 17 16 15 14 14 14 14 13 13 13 13 13 13 13 13 13 13 13
29 28 23 21 21 22 22 20 21 20 22 22 22 21 21 22 20 18 17 17 17 18 19 17 18 20 16 15 16 17 18 16 15 15 14 14 14 13 13 13 13 13 13 13 13 13 13 13 13
24 22 21 22 20 23 22 21 21 23 23 22 20 21 20 19 18 17 17 18 20 19 18 19 16 15 16 16 16 17 17 17 16 15 15 14 14 14 13 13 13 13 13 13 13 13 12 13 13
26 23 21 24 22 22 23 22 21 23 23 21 20 20 20 20 18 18 18 19 19 18 17 16 16 15 16 16 16 17 16 17 16 16 15 15 14 14 14 13 13 13 13 13 13 13 13 13 13
27 22 23 21 20 21 21 24 23 23 22 21 21 20 20 19 18 18 18 18 18 18 16 16 16 16 16 16 16 16 17 17 16 16 16 15 15 14 14 13 13 13 13 13 13 13 13 13 13
25 23 23 19 23 23 21 22 21 22 22 23 22 20 20 19 18 18 17 17 18 18 18 17 17 17 17 17 16 16 17 17 17 17 16 15 15 14 14 14 13 13 13 13 13 13 13 13 13
22 22 18 18 19 20 20 20 20 22 22 21 21 20 20 19 17 17 16 17 17 17 17 17 16 16 16 16 16 16 17 17 16 16 15 15 15 14 14 14 13 13 13 13 13 13 13 13 13
24 22 19 19 22 17 17 19 22 20 21 21 20 20 19 18 17 16 16 16 16 16 17 17 16 16 16 16 16 16 17 16 15 15 16 16 15 14 14 14 14 14 13 13 13 13 13 13 13
Height
776 778 779 780 807 816 819 806 789 792 789 773 774 783 790 786 793 813 791 791 793 799 804 808 808 810 811 812 813 814 814 814 814 815 815 815 815 814 813 813 813 812 812 810 809 809 808 806 806
776 778 779 789 821 833 823 797 794 783 776 771 778 782 788 796 787 792 795 797 797 801 805 807 810 811 812 812 814 815 815 815 816 817 817 816 816 815 814 813 813 812 812 811 810 809 808 806 806
778 778 787 805 827 830 818 792 782 778 769 770 779 777 784 795 790 792 794 797 799 802 807 810 810 811 813 815 816 816 817 817 817 818 817 816 816 816 815 814 813 812 812 811 810 809 808 806 805
778 781 791 813 816 801 791 780 779 783 774 769 776 791 784 785 787 790 794 799 803 805 809 811 813 814 817 818 818 819 820 820 820 820 819 819 817 817 816 815 814 813 812 811 810 810 808 805 805
779 789 813 817 810 790 780 774 775 779 777 776 776 791 793 790 790 791 795 799 803 808 810 812 815 816 819 820 821 822 823 823 823 822 821 820 820 819 817 817 817 814 813 813 812 810 808 806 804
789 794 821 824 806 784 774 771 772 779 779 777 782 789 793 789 791 796 796 799 804 807 810 812 815 817 819 821 822 823 824 824 823 823 823 822 821 822 820 819 818 816 814 815 813 810 808 806 804
791 805 814 809 808 792 778 767 771 776 781 782 777 794 799 796 795 796 800 803 806 808 810 814 816 818 819 820 822 823 823 824 824 824 824 824 823 823 821 821 818 818 816 816 814 812 809 806 805
784 795 806 804 806 800 776 769 765 772 783 770 765 788 803 794 797 798 803 806 806 809 808 812 815 817 818 819 821 822 823 824 825 825 825 824 824 823 823 822 820 819 819 817 816 813 811 809 807
776 809 822 800 795 783 774 780 770 769 774 773 768 769 775 791 797 800 804 807 808 810 811 811 815 816 818 820 821 822 824 824 824 825 825 825 825 824 824 823 822 821 820 818 817 815 814 811 808
787 813 805 783 777 779 770 772 777 777 779 780 775 770 777 790 795 798 802 802 803 807 810 811 812 815 817 819 821 823 824 824 825 825 825 826 825 824 824 824 824 822 821 820 819 818 816 812 810
784 798 783 772 767 769 775 773 768 773 780 766 774 773 779 790 792 792 794 793 791 799 805 808 810 812 815 818 821 823 825 825 826 826 826 826 826 825 824 825 825 824 822 821 820 820 818 813 813
784 775 772 765 758 762 769 765 771 761 757 744 760 768 776 785 788 786 789 793 794 797 801 806 808 810 815 819 822 823 824 825 826 827 827 826 826 826 826 826 826 826 824 823 822 822 818 817 816
781 773 768 761 761 762 759 764 765 759 755 756 762 769 779 779 780 783 783 785 788 791 795 799 804 807 812 817 820 823 824 824 826 825 827 826 827 827 828 827 827 827 826 825 824 823 822 821 819
770 769 765 760 756 755 761 761 759 758 757 761 764 767 773 774 773 779 783 785 785 787 789 794 800 804 809 812 816 820 823 825 826 825 825 826 828 828 829 828 828 828 826 825 825 824 824 823 821
766 774 768 759 753 752 753 774 768 756 758 763 765 768 769 767 770 768 767 772 779 782 784 787 793 799 804 809 813 817 821 822 823 824 825 826 828 827 828 829 828 828 827 827 827 826 825 824 823
776 782 795 764 755 749 752 780 759 755 755 763 764 767 769 764 765 766 768 770 771 775 781 787 793 798 802 805 810 814 819 820 820 822 822 824 826 827 828 829 829 828 828 828 827 826 826 825 825
797 803 792 781 754 754 756 771 756 756 757 761 764 769 767 764 761 761 761 762 769 774 780 784 790 797 802 807 810 812 815 818 818 820 822 824 826 828 829 830 830 828 828 828 826 825 825 825 825
799 795 793 794 766 757 765 767 760 756 757 759 767 765 761 760 755 755 755 763 770 777 782 787 791 799 804 809 812 814 818 818 820 818 821 825 826 828 829 830 831 830 828 826 825 825 825 825 824
784 790 795 783 767 761 771 771 772 765 764 767 766 764 758 753 751 754 759 766 771 777 784 790 795 796 797 804 808 814 816 819 822 819 817 821 825 827 828 830 832 831 829 827 826 826 826 825 824
789 795 794 776 763 764 781 790 788 783 781 777 772 764 752 752 752 752 759 762 767 777 786 788 792 795 792 796 806 812 816 820 822 822 818 821 824 826 828 830 832 832 831 827 826 827 826 825 823
781 788 781 782 768 766 780 806 796 783 778 770 768 765 760 756 756 756 762 769 773 782 783 789 795 807 808 799 801 811 816 819 823 823 822 823 825 827 828 831 831 831 831 829 829 829 828 827 826
779 767 768 771 783 806 781 824 807 795 786 774 771 765 757 747 754 775 776 781 785 785 784 785 789 794 802 811 812 806 811 816 821 822 822 824 823 825 828 831 833 832 831 831 831 830 830 828 828
769 755 767 770 791 797 800 827 813 797 790 776 765 758 749 751 762 774 776 781 791 797 796 798 793 794 795 819 819 816 812 812 819 824 822 825 824 826 828 831 832 832 831 831 831 831 831 831 830
752 763 780 794 802 824 810 820 824 812 798 783 764 755 747 751 760 767 779 782 789 797 797 804 803 795 802 811 813 816 815 814 817 819 820 820 823 827 828 831 832 832 831 831 831 831 833 834 833
769 793 828 828 836 828 805 818 817 793 785 779 772 758 755 752 757 767 775 779 782 776 786 784 789 796 798 803 808 811 812 812 814 813 814 816 821 824 827 829 831 833 831 831 832 832 834 834 836
780 791 826 829 839 829 805 824 812 786 777 777 771 761 757 757 758 758 764 771 766 778 786 789 790 794 798 801 803 806 810 811 811 809 810 814 819 822 825 828 830 832 831 831 832 833 834 836 836
780 804 791 821 826 828 824 801 789 783 782 781 774 770 763 763 768 767 767 770 772 778 784 785 788 788 791 795 800 803 806 809 805 807 811 814 818 822 826 828 830 832 830 830 832 833 834 835 836
780 785 808 824 830 830 827 819 815 796 787 779 776 775 769 766 773 771 773 774 773 773 778 784 785 786 788 793 796 800 801 803 803 805 810 813 817 821 826 826 829 830 830 828 832 832 834 836 835
796 802 818 822 828 840 842 828 791 784 784 783 782 778 777 776 775 775 773 775 773 774 777 778 782 786 787 790 793 796 800 802 808 806 807 811 814 820 822 825 827 829 829 829 829 831 833 835 835
787 802 814 831 822 834 838 828 775 777 780 778 781 779 779 779 780 780 778 778 775 774 775 776 777 781 783 787 791 797 800 802 807 804 805 809 813 818 822 823 827 827 827 828 828 829 830 834 834
Wind_Speed
6 7 5 2 3 4 2 4 1 2 3 4 12 7 4 2 2 3 4 11 27 26 21 17 16 15 13 12 12 11 11 11 12 12 12 12 12 10 9 8 8 9 7 6 8 9 8 8 9
8 6 2 2 4 3 4 3 5 5 6 12 8 4 2 1 3 9 9 18 28 25 21 19 16 14 13 12 12 11 11 12 12 11 10 9 8 7 7 7 7 8 8 8 8 8 7 8 8
9 1 3 4 3 3 4 5 4 3 12 4 5 3 2 4 7 10 13 25 26 24 21 17 16 14 13 13 12 12 12 12 10 8 7 7 7 7 7 8 8 7 8 8 9 8 9 8 9
4 4 4 4 5 7 6 3 2 4 5 1 9 8 4 3 15 12 24 27 26 23 20 16 15 13 13 13 13 12 11 10 8 7 7 7 8 11 13 13 11 10 10 11 11 11 11 11 11
2 3 3 1 5 6 3 3 5 1 4 6 2 5 5 8 12 27 29 28 26 22 19 16 14 14 14 13 12 11 9 7 6 7 9 10 12 13 15 15 13 13 12 12 11 11 12 13 14
3 3 3 3 4 6 5 6 6 4 6 3 6 3 2 19 29 25 29 29 27 25 20 17 15 15 14 14 12 10 8 7 8 9 9 9 10 10 11 13 13 12 11 11 12 12 13 14 13
6 4 4 3 6 7 6 8 10 10 5 3 4 5 2 12 23 29 27 28 27 24 22 19 17 17 17 15 13 11 8 8 7 7 7 8 7 7 9 10 10 11 10 11 14 13 12 13 15
5 4 3 1 2 5 4 2 5 8 3 4 10 6 6 15 22 26 25 27 26 24 23 22 21 19 17 16 13 10 11 9 5 5 4 6 7 9 7 8 8 9 10 10 12 12 14 14 16
4 4 2 4 4 5 6 5 3 5 6 4 6 5 14 28 25 26 23 22 24 23 23 23 21 20 18 16 13 12 10 7 5 6 4 4 6 7 7 8 8 9 10 11 12 15 15 14 16
4 4 8 6 4 6 3 6 5 3 4 4 3 8 33 32 30 25 22 22 23 24 25 24 23 22 20 17 16 13 9 6 5 3 5 3 4 6 7 8 9 10 10 10 13 13 15 16 17
4 4 5 7 11 3 5 6 7 13 7 9 13 19 24 28 26 26 25 33 39 33 29 28 26 24 22 20 17 13 9 6 4 2 3 2 3 6 7 6 9 9 9 11 13 13 16 18 20
0 7 4 8 3 3 7 8 5 13 12 15 15 21 22 20 20 24 25 24 29 33 33 29 27 26 23 19 17 13 10 6 4 1 1 2 3 5 7 7 8 7 10 11 11 13 17 17 20
5 7 6 11 11 7 8 12 10 20 4 8 15 19 18 20 25 28 31 34 32 33 36 34 32 28 24 20 19 15 12 8 3 3 3 3 4 5 6 5 6 7 8 11 9 11 13 14 16
4 5 7 7 10 5 8 5 12 12 9 14 18 18 18 21 25 25 23 26 32 34 39 36 34 30 26 22 23 19 14 8 5 4 5 5 7 6 5 5 7 7 8 9 9 10 10 11 12
4 6 8 3 4 4 8 4 7 7 17 17 19 14 13 18 28 30 36 37 37 40 43 39 36 32 30 24 26 24 17 11 8 6 6 6 6 5 6 7 7 6 5 6 7 10 10 11 11
5 5 5 6 4 4 5 7 5 13 21 17 15 13 12 11 18 30 33 36 39 39 42 39 36 33 29 31 29 26 19 14 9 8 7 6 6 5 5 5 4 4 3 3 6 8 10 7 9
7 2 3 11 3 4 3 9 6 8 12 15 14 10 12 7 10 26 32 41 38 38 40 41 39 34 32 32 28 24 21 16 11 10 7 6 7 5 4 5 7 6 1 4 6 10 10 8 7
2 4 5 6 7 4 4 7 7 12 14 14 8 11 14 12 14 26 33 30 31 32 36 36 39 37 35 29 26 23 21 17 13 10 9 7 7 6 4 5 6 5 3 6 5 10 9 8 4
1 4 5 6 8 3 6 7 3 7 7 9 11 12 16 17 9 21 27 27 26 29 30 33 37 40 37 33 32 28 26 20 15 12 11 8 9 7 8 7 7 7 9 10 8 11 8 11 4
4 3 9 5 4 3 17 20 9 8 10 7 9 13 21 14 10 11 21 27 30 28 25 31 33 37 38 37 33 30 27 20 16 13 11 9 9 10 11 7 6 7 7 11 11 10 11 13 11
4 5 4 4 3 4 9 11 14 8 5 12 9 12 14 13 14 11 9 12 19 21 22 19 13 5 8 27 33 28 24 21 16 15 13 11 11 12 12 10 7 8 8 10 11 10 14 16 22
4 6 4 2 5 2 4 1 5 6 8 6 7 12 21 21 7 9 10 12 14 19 24 26 16 14 10 20 28 34 28 23 20 19 16 14 13 14 12 10 8 9 10 12 10 12 12 14 14
5 2 3 2 5 4 7 6 7 5 8 8 10 9 18 20 3 7 7 19 17 15 16 19 14 17 19 30 26 28 29 25 22 19 19 16 14 12 12 9 8 9 10 12 11 12 14 15 15
3 3 4 5 2 4 5 6 5 4 6 9 9 12 9 6 8 9 19 26 23 9 8 22 13 13 23 34 29 30 28 24 26 24 23 19 16 14 13 10 10 8 8 9 10 9 11 13 14
8 7 4 5 5 3 3 6 6 7 7 6 6 9 8 9 9 11 14 19 14 15 25 25 24 24 32 35 31 32 32 30 31 29 26 23 21 19 16 11 11 9 9 8 8 10 10 11 10
4 5 5 1 0 4 4 4 5 7 7 8 4 1 5 4 5 11 15 18 23 23 16 19 21 22 32 30 32 33 36 34 32 28 25 23 22 19 17 14 11 9 8 7 6 6 7 6 7
2 5 1 6 3 2 3 3 5 5 9 7 1 3 1 5 5 2 4 9 10 9 16 22 26 34 34 32 30 31 31 33 30 26 22 22 20 17 18 14 11 8 8 8 7 5 6 3 3
6 1 3 4 1 1 4 4 4 6 8 2 3 4 4 3 4 1 1 4 7 11 18 24 29 33 35 32 32 32 28 26 27 25 23 23 20 19 17 15 12 9 7 10 8 5 4 4 2
5 4 7 4 3 4 1 6 6 7 6 6 6 4 3 4 5 2 3 6 10 17 22 26 26 25 29 29 27 26 24 25 26 24 21 22 21 22 19 17 15 10 6 8 8 6 7 7 6
3 3 4 4 2 0 3 6 4 6 7 5 7 4 3 4 2 1 1 6 13 18 22 25 24 26 28 29 26 22 24 26 27 22 18 17 20 23 20 17 13 10 9 8 8 7 7 8 10
Wind_Direction
177 152 149 41 39 64 257 248 202 243 211 247 144 185 189 17 157 207 103 152 149 150 154 154 146 140 134 129 125 121 115 109 103 100 94 88 81 87 87 77 76 70 64 59 46 37 30 32 28
166 145 58 83 84 32 273 245 223 204 133 103 126 122 39 37 68 118 116 151 151 147 154 151 151 144 139 135 134 128 121 114 107 100 103 107 104 86 71 64 54 51 49 43 36 30 23 21 13
156 66 74 89 117 197 222 224 241 149 160 139 111 94 84 132 112 137 150 159 152 151 154 154 153 148 144 141 136 129 126 120 128 127 119 105 88 69 58 47 47 44 36 33 26 16 10 7 1
163 31 27 89 250 254 216 189 231 135 222 154 104 93 63 203 148 164 155 158 153 151 154 156 152 146 146 140 135 135 133 133 126 118 107 92 86 77 64 54 48 44 43 42 35 30 28 25 16
80 59 58 331 254 269 295 98 96 225 88 88 41 116 108 132 147 150 157 159 155 154 157 154 155 153 150 143 138 141 140 138 127 110 106 95 92 67 59 52 50 52 52 42 31 29 27 32 33
54 102 65 247 265 310 282 154 114 91 88 91 99 48 48 151 144 151 160 161 161 158 158 159 161 158 153 152 153 155 152 138 117 106 100 92 78 62 56 50 44 38 48 31 20 31 33 24 20
132 100 213 245 328 298 323 173 130 123 96 106 139 94 102 158 150 157 164 163 162 162 161 161 160 162 162 157 157 157 142 128 122 111 91 81 66 48 46 43 41 45 38 36 43 31 28 32 29
113 97 155 267 238 282 346 50 118 140 165 154 159 153 170 184 155 157 160 163 164 167 166 170 171 172 165 161 157 145 134 122 115 128 105 69 46 42 48 47 51 49 34 45 29 33 29 49 54
130 69 184 222 186 264 164 20 37 25 129 222 162 155 148 159 152 146 148 156 164 172 175 174 175 171 168 163 151 143 142 144 124 129 121 80 53 56 69 64 54 39 41 36 38 47 64 53 45
110 119 215 212 198 221 240 147 168 138 41 331 271 99 140 150 156 155 159 164 168 180 185 179 177 174 172 166 159 155 155 147 150 118 119 83 62 71 84 67 42 36 45 49 49 66 58 50 49
156 188 220 255 230 213 195 190 169 140 212 190 198 154 152 157 170 167 169 175 181 182 183 186 181 179 178 172 165 163 152 140 136 116 126 86 99 86 85 51 39 65 57 44 70 72 66 60 59
193 242 223 280 261 235 156 141 194 172 221 206 182 166 154 169 177 178 175 180 179 186 187 187 186 184 181 176 173 169 161 154 136 104 125 99 110 92 78 62 56 53 57 63 90 76 70 65 64
203 258 249 261 285 245 160 187 186 209 46 118 155 159 169 175 184 190 184 183 182 185 187 188 187 186 184 182 181 179 173 158 142 112 117 117 87 98 56 45 59 65 66 64 81 68 73 73 69
221 239 275 280 270 241 167 240 137 211 139 150 168 174 178 186 189 184 186 186 187 187 185 185 188 189 187 190 188 184 182 173 138 116 116 101 98 80 48 51 80 81 69 64 71 78 80 75 78
286 324 336 272 297 280 145 86 214 172 166 167 178 186 186 196 192 193 187 187 189 192 188 187 187 191 192 194 194 186 184 169 149 128 118 110 110 78 76 87 85 71 62 62 90 86 82 83 96
6 55 17 284 318 305 111 268 245 173 163 174 177 182 186 198 193 203 194 194 191 186 191 189 189 194 198 192 185 180 179 169 161 138 134 134 128 103 90 79 55 33 23 68 86 89 68 77 99
8 303 325 324 297 252 121 254 185 180 176 174 183 181 203 209 200 198 198 195 191 188 185 188 192 189 182 175 175 175 175 172 163 147 137 134 130 114 91 77 48 30 346 134 90 80 64 60 85
281 343 322 286 296 10 327 278 186 188 185 186 179 198 209 205 218 198 195 191 189 184 185 181 182 176 171 173 175 173 172 165 162 149 138 132 135 134 124 98 65 61 96 108 119 92 70 46 57
293 272 256 260 273 296 329 322 220 179 190 186 210 214 218 213 213 208 196 186 181 181 171 174 173 179 175 173 167 168 170 164 156 153 148 142 156 141 137 124 84 64 74 81 108 97 78 45 64
218 256 287 288 275 141 59 31 26 351 323 311 251 226 228 214 219 206 198 184 181 172 170 175 181 178 179 180 178 176 167 164 162 162 151 155 160 150 148 124 96 79 86 84 90 95 91 60 52
224 194 257 227 311 20 119 58 17 349 307 287 241 258 262 245 238 223 184 177 163 149 158 148 143 158 296 180 174 170 164 159 160 162 156 154 153 142 141 129 110 96 86 79 75 81 89 85 70
3 193 215 88 72 127 27 99 34 332 312 357 322 246 245 245 272 51 84 78 121 140 153 162 144 128 60 235 185 173 169 167 178 174 165 162 161 151 147 132 112 101 89 74 85 80 87 98 81
219 98 18 64 103 99 350 76 284 300 350 349 336 317 234 248 96 67 107 114 101 102 151 179 177 201 207 230 200 185 181 182 176 174 170 168 157 160 158 156 138 111 100 87 90 89 87 85 87
22 57 54 58 69 52 279 119 293 298 281 304 339 334 309 200 131 108 96 95 96 125 183 266 224 184 209 207 205 202 198 182 175 177 176 172 166 165 166 169 162 136 115 103 89 105 98 88 81
58 51 4 14 14 228 228 60 219 267 286 273 288 12 36 107 125 127 117 126 159 229 210 216 222 204 207 205 204 207 207 194 190 183 181 177 178 182 181 175 171 160 133 121 104 102 106 90 84
7 117 140 143 210 266 333 143 246 227 280 286 280 23 82 100 148 159 170 170 193 206 213 179 193 193 201 203 208 216 215 202 197 190 185 186 188 187 183 187 173 173 155 140 127 109 126 100 82
43 41 166 105 359 60 285 272 301 226 251 270 245 314 285 5 27 107 144 171 189 202 182 185 200 206 198 201 206 206 206 209 203 194 192 190 188 186 184 184 177 172 166 167 160 141 138 127 111
96 171 40 11 123 299 299 291 249 200 250 267 171 208 246 317 346 82 349 225 205 219 218 218 218 207 200 203 203 210 208 210 199 191 195 194 193 192 192 186 188 183 187 175 186 182 167 199 220
350 23 51 116 120 159 206 272 220 235 203 226 243 293 335 360 27 318 157 220 214 209 209 218 218 209 203 204 208 209 208 213 204 194 197 203 197 199 196 194 191 192 193 184 195 210 211 232 270
54 97 104 110 238 132 140 270 276 251 177 208 214 198 297 294 357 240 185 175 185 200 218 221 217 214 212 207 211 210 211 207 204 195 195 197 202 199 199 193 200 204 206 204 198 210 230 247 277